STARLINK-11485, 62229

Orbit data source: Space-Track

STARLINK-11485, 62229 is a payload satellite owned by SpaceX/Seattle (US) in LEO that was launched on Thu, 05 Dec 2024 UTC via an FALCON 9 launch vehicle from the Air Force Western Test Range (AFWTR). Payload-class satellites include a variety of spacecraft equipped with specific instruments for various scientific and technological missions. These include communications satellites like Starlink; space stations such as the ISS; scientific satellites like the Hubble; Earth observation satellites from companies like Planet Labs, Umbra, and HawkEye 360; GPS; miniature CubeSats for education and research; and military/defense satellites.

Loading next visibility...
Identifier
62229, 2024-231M
Orbit
LEO
Country
Flag of USUS
Related business
Manufacturer
SpaceX/Seattle
Mission
Operational Commercial Communications
Bus & Motor
STARLINK V2MD, Unknown motor
Mass
960 kg wet, ~910 kg dry
Launch date (UTC)
2024-12-05 (9 months ago)
Launch vehicle
FALCON 9
Launch site
Air Force Western Test Range (AFWTR)
Object type
Payload
Rocket body
Debris
Shape & HBR
Box + 2 Pan, 14.5 m
Radar Cross Section
36.964 m², Large (>1 m²)

Expand to show TLE details & history
Last TLE update: 1 day ago

TLE from 1 day ago
0 STARLINK-11485
1 62229U 24231M   25257.33046087  .00082925  00000-0  68155-3 0  9999
2 62229  53.1567 250.5481 0000953  84.3458 275.7669 15.69743965 45718
Epoch: 2025-09-14T07:55Z
TLE epoch observation values (Epoch: 2025-09-14T07:55:51.819Z)
Latitude
0.00003°
Longitude
138.0312°
Altitude
360.48 km
Speed
7.694 km/s
True Right ascension
16h 42m 11s
True Declination
0° 00' 00"
Sunlit
Object was in daylight at epoch
Visualization orbit readout
Latitude
Unknown
Longitude
Unknown
Altitude
Unknown
Speed
Unknown
Apparent Right ascension
Unknown
Apparent Declination
Unknown
Sunlit
N/A
Visualization observer readout
Local Sidereal Time
02:19:28
Azimuth
Unknown
Elevation
Unknown
Doppler factor
Unknown
Orbital elements
Apogee altitude
360.533 km
Perigee altitude
359.249 km
Semi-major axis
6,738.028 km
Eccentricity
0.0001
Inclination
53.1567°
RAAN
250.5481°
Arg. of periapsis
84.3458°
True anomaly
275.75603°
Mean anomaly
275.7669°
Eccentric anomaly
275.76147°
Mean motion
3.92414 °/min
Orbital period
91.74 mins
BSTAR
0.00068155
Loading maneuver chart data...
Computing Atmospheric mass density...
Loading historical data...
Loading historical data...
Loading historical data...
Loading historical data...
Loading historical data...
Loading historical data...
Loading historical data...

Documentation

Showing up to 5 results
|